Home > Weather > Karlstad > Past weeks

Flag for Sweden Past Weather in Karlstad, Sweden — Yesterday and Last 2 Weeks

Now
64 °F

Sunny.


Feels Like: 64 °F
Forecast: 55 / 72 °F
Wind: 9 mph from Northeast

Location: Karlstad

Current Time: Jun 1, 2016 at 7:47:48 AM

Latest Report: Jun 1, 2016 at 7:20 AM


Visibility: 10 mi

Pressure: 30.21 "Hg

Humidity: 68%

Dew Point: 54 °F

Location of KarlstadLocation

Past Weather in Karlstad — Graph

°F

Karlstad Temperature Yesterday

Maximum temperature yesterday: 81 °F (at 4:20 PM)
Minimum temperature yesterday: 52 °F (at 4:50 AM)
Average temperature yesterday: 67 °F

High & Low Weather Summary for the Past Weeks

 TemperatureHumidityPressure
High81 °F (May 31, 4:20 PM)100% (May 17, 6:20 AM)30.21 "Hg (May 17, 6:20 AM)
Low37 °F (May 17, 6:20 AM)34% (May 17, 4:50 PM)29.65 "Hg (May 17, 4:20 PM)
Average56 °F78%29.97 "Hg
* Reported May 17 6:20 AM — Jun 1 6:20 AM, Karlstad, Weather by CustomWeather, © 2016

Note: Actual official high and low records may vary slightly from our data, if they occured in-between our weather recording intervals... More about our weather records

Advertising

Karlstad Weather History for the Previous 24 Hours

Scroll right to see more
 ConditionsComfort  
Time TempWeatherWind HumidityBarometerVisibility
6:20 AM
Wed, Jun 1
63 °FSunny.8 mph77%30.21 "Hg10 mi
5:50 AM59 °FSunny.6 mph88%30.21 "Hg10 mi
5:20 AM57 °FCool.6 mph88%30.21 "HgN/A
4:50 AM57 °FCool.6 mph88%30.21 "HgN/A
4:20 AM61 °FCool.7 mph77%30.21 "HgN/A
3:50 AM63 °FPassing clouds.7 mph77%30.21 "HgN/A
3:20 AM63 °FPassing clouds.7 mph77%30.21 "HgN/A
2:50 AM63 °FMild.6 mph77%30.21 "HgN/A
2:20 AM63 °FMild.6 mph73%30.21 "HgN/A
1:50 AM64 °FMild.6 mph68%30.21 "HgN/A
1:20 AM64 °FMild.6 mph68%30.21 "HgN/A
12:50 AM64 °FMild.5 mph68%30.18 "HgN/A
12:20 AM63 °FMild.6 mph73%30.18 "HgN/A
11:50 PM
Tue, May 31
68 °FMild.7 mph60%30.18 "HgN/A
11:20 PM61 °FCool.5 mph77%30.18 "HgN/A
10:50 PM64 °FSunny.5 mph68%30.18 "Hg10 mi
10:20 PM66 °FSunny.5 mph64%30.15 "Hg10 mi
9:50 PM72 °FSunny.3 mph50%30.15 "Hg10 mi
9:20 PM73 °FSunny.5 mph47%30.15 "Hg10 mi
8:50 PM75 °FSunny.5 mph44%30.15 "Hg10 mi
8:20 PM77 °FSunny.6 mph42%30.15 "Hg10 mi
7:50 PM77 °FPassing clouds.6 mph44%30.15 "HgN/A
7:20 PM79 °FSunny.8 mph39%30.15 "Hg10 mi
6:50 PM79 °FSunny.8 mph37%30.12 "Hg10 mi
6:20 PM79 °FPassing clouds.8 mph39%30.12 "HgN/A
5:50 PM79 °FSunny.7 mph42%30.12 "Hg10 mi
5:20 PM79 °FPassing clouds.8 mph39%30.12 "HgN/A
4:50 PM79 °FPassing clouds.8 mph42%30.15 "HgN/A
4:20 PM81 °FPassing clouds.10 mph39%30.15 "HgN/A
3:50 PM79 °FPassing clouds.9 mph42%30.15 "HgN/A
3:20 PM79 °FPassing clouds.9 mph42%30.15 "HgN/A
2:50 PM77 °FPassing clouds.10 mph47%30.15 "HgN/A
2:20 PM75 °FPassing clouds.9 mph47%30.18 "HgN/A
1:50 PM77 °FSunny.10 mph47%30.18 "Hg10 mi
1:20 PM73 °FPassing clouds.10 mph53%30.18 "HgN/A
12:50 PM75 °FSunny.12 mph50%30.18 "Hg10 mi
12:20 PM73 °FSunny.13 mph50%30.18 "Hg10 mi
11:50 AM73 °FSunny.13 mph50%30.18 "Hg10 mi
11:20 AM70 °FPassing clouds.10 mph57%30.18 "HgN/A
10:50 AM70 °FPassing clouds.10 mph57%30.18 "HgN/A
10:20 AM68 °FSunny.12 mph56%30.18 "Hg10 mi
9:50 AM66 °FSunny.10 mph60%30.18 "Hg10 mi
9:20 AM64 °FSunny.12 mph64%30.18 "Hg10 mi
8:50 AM63 °FSunny.12 mph68%30.18 "Hg10 mi
8:20 AM61 °FSunny.12 mph72%30.18 "Hg10 mi
7:50 AM59 °FSunny.12 mph72%30.18 "Hg10 mi
7:20 AM57 °FSunny.10 mph77%30.18 "Hg10 mi
Weather by CustomWeather, © 2016

See weather overviewHow to use our weather pages